Tracking 28514 objects as of 25-Feb-2024
HD Live streaming from Space Station
objects crossing your sky now

YARILO-2

Track YARILO-2 now!
10-day predictions
YARILO-2 is classified as:


NORAD ID: 46491
Int'l Code: 2020-068F
Perigee: 498.6 km
Apogee: 514.6 km
Inclination: 97.8 °
Period: 94.6 minutes
Semi major axis: 6877 km
RCS: Unknown
Launch date: September 28, 2020
Source: (UNK)
Launch site: PLESETSK MISSILE AND SPACE COMPLEX (PKMTR)

Uplink (MHz):
Downlink (MHz): 435.550
Beacon (MHz):
Mode: 9600bps FSK
Call sign:
Status: Inactive

Your satellite tracking list
Your tracking list is empty




NASA's NSSDC Master Catalog

Two Line Element Set (TLE):
1 46491U 20068F   24055.40428267  .00021046  00000-0  91817-3 0  9991
2 46491  97.8000  17.2614 0011598 341.8045  18.2773 15.22123796187473
Source of the keplerian elements: AFSPC